Regional Weather Roundup
Issued by NWS

Home | Current Version | Previous Version | Text Only | Print | Product List | Glossary Off
Versions: 1 2 3 4 5 6 7 8 9 10 11 12 13 14 15 16 17 18 19 20 21 22 23 24 25 26 27 28 29 30 31 32 33 34 35 36 37 38 39 40 41 42 43 44 45 46 47 48 49 50

131
ASUS43 KDTX 200901
RWRMI
MICHIGAN HOURLY REGIONAL WEATHER ROUNDUP
NATIONAL WEATHER SERVICE DETROIT/PONTIAC MI
500 AM EDT WED SEP 20 2017

NOTE: "FAIR" INDICATES FEW OR NO CLOUDS BELOW 12,000 FEET WITH NO
SIGNIFICANT WEATHER AND/OR OBSTRUCTION TO VISIBILITY.

MIZ047>049-052>055-059>063-066>070-074>076-081>083-201000-
SOUTHEAST LOWER MICHIGAN

CITY           SKY/WX    TMP DP  RH WIND       PRES   REMARKS
ADRIAN         CLOUDY    66  66 100 CALM      29.96S FOG
ALMA           CLOUDY    66  65  96 SW5       29.96R FOG
ANN ARBOR      CLOUDY    67  67 100 CALM      29.95S FOG
BAD AXE        CLOUDY    66  65  96 CALM      29.97S FOG
CARO           CLOUDY    64  63  96 CALM      29.95S FOG
DETROIT CITY   FOG       65  65 100 SE3       29.95F VSB 1/4
DETROIT        FOG       66  66 100 E3        29.95S VSB 1/4
FLINT          FOG       62  61  96 CALM      29.96S VSB 1/4
GROSSE ILE     MOCLDY    65  65  99 CALM      29.95R FOG
HILLSDALE      CLOUDY    66  64  94 S3        29.96R FOG
HOWELL         CLOUDY    67  66  97 SE3       29.96R FOG

CITY           SKY/WX    TMP DP  RH WIND       PRES   REMARKS
JACKSON        CLOUDY    68  66  93 E5        29.95R FOG
LAMBERTVILLE   FOG       67  65  93 CALM      29.94S VSB 1
LANSING        MOCLDY    66  64  93 E5        29.95S FOG
LAPEER         MOCLDY    65  64  98 CALM      29.96S FOG
MASON          CLOUDY    68  66  93 CALM      29.95S FOG
MONROE           N/A     67  65  93 CALM      29.94S FOG
MT. CLEMENS    CLEAR     66  66 100 E6        29.94S FOG
PONTIAC        CLEAR     65  65 100 SE3       29.95S FOG
PORT HOPE        N/A     67  66  97 SE5       29.96S
PORT HURON     FOG       66  64  94 CALM      29.96F VSB 3/4
TRI CITIES     CLOUDY    67  67 100 CALM      29.96R FOG
MIDLAND        CLOUDY    66  66  99 CALM      29.95S FOG
TROY           FOG       66  66  98 NE3       29.98S VSB 1/4
SAGINAW HB     FOG       63  63 100 CALM      29.96R VSB 1/2
$$
MIZ043>046-050>051-056>058-064>065-071>073-077>080-201000-
SOUTHWEST LOWER MICHIGAN

CITY           SKY/WX    TMP DP  RH WIND       PRES   REMARKS
BATTLE CREEK   CLOUDY    68  67  96 S3        29.95R FOG
BENTON HARBOR  FOG       64  63  96 CALM      29.93R VSB 1/4
BIG RAPIDS     CLOUDY    64  62  95 CALM      29.96R FOG
COLDWATER      CLOUDY    67  67 100 CALM      29.95R
FREMONT        CLOUDY    65  65 100 CALM      29.95R FOG
HOLLAND        CLOUDY    66  64  93 CALM      29.95R FOG
GRAND RAPIDS   CLOUDY    67  66  97 CALM      29.94R FOG
IONIA          CLOUDY    67  66  99 CALM      29.94R FOG
KALAMAZOO      CLOUDY    68  65  90 S5        29.95R FOG
LUDINGTON      CLOUDY    64  62  94 CALM      29.95R FOG
MARSHALL       CLOUDY    66  66  98 CALM      29.94S FOG
MOUNT PLEASANT CLOUDY    66  65  96 CALM      29.96R FOG
MUSKEGON       CLOUDY    66  63  90 CALM      29.94R
SOUTH HAVEN    CLOUDY    67  65  96 CALM      29.94R FOG
$$
MIZ016>042-201000-
NORTHERN LOWER MICHIGAN

CITY           SKY/WX    TMP DP  RH WIND       PRES   REMARKS
ALPENA         FOG       66  66 100 SE3       29.99R VSB 1
BEAVER ISLAND  CLEAR     61  61  99 SE3       29.97F FOG
BELLAIRE       CLOUDY    61  59  94 CALM      29.98R
CADILLAC       CLOUDY    65  62  90 CALM      29.97S FOG
CHARLEVOIX     CLEAR     59  59 100 S3        30.01R
FRANKFORT      MOCLDY    61  61 100 CALM      29.96R FOG
GAYLORD        CLOUDY    62  61  96 S8        30.00R FOG
GRAYLING       FOG       61  60  96 CALM      29.99S VSB 1/2
HARBOR SPRINGS CLOUDY    62  60  95 E7        29.98R
HOUGHTON LAKE  CLOUDY    63  62  97 E3        29.99S FOG
MANISTEE       CLOUDY    62  61  96 CALM      29.96R
OSCODA         RAIN      67  67  98 CALM      29.97S
PELLSTON       CLOUDY    62  61  96 CALM      29.99R FOG
ROGERS CITY    FOG       64  63  97 SE5       30.00R VSB 1/2
TRAVERSE CITY  MOCLDY    66  61  84 CALM      29.96R
$$
MIZ007>008-015-201000-
EASTERN UPPER MICHIGAN

CITY           SKY/WX    TMP DP  RH WIND       PRES   REMARKS
KINROSS        CLOUDY    62  60  93 E6        29.99S
MACKINAC ISLAN CLOUDY    64  64 100 E6        29.99R
NEWBERRY       CLOUDY    60  59  97 SE7       29.97F FOG
S. S. MARIE    CLOUDY    62  56  80 E3        29.99S
MUNISING         N/A     61  61 100 S6        29.92F
$$
MIZ004>006-011>014-085-201000-
CENTRAL UPPER MICHIGAN

CITY           SKY/WX    TMP DP  RH WIND       PRES   REMARKS
MANISTIQUE     CLEAR     61  55  82 SE7       29.95F
MENOMINEE      CLEAR     61  60  97 S5        29.94S
SAWYER-GWINN   CLOUDY    58  57  99 S12       29.93F FOG
$$
MIZ001>003-009>011-084-201000-
WESTERN UPPER MICHIGAN

CITY           SKY/WX    TMP DP  RH WIND       PRES   REMARKS
IRON MOUNTAIN  FOG       58  56  93 SE6       29.92S VSB 1/2
HOUGHTON       CLOUDY    57  53  86 E9        29.85F
COPPER HARBOR    N/A     60  56  86 SW8G24    29.85F
IRONWOOD       PTCLDY    62  56  80 SE16G25   29.72F
$$

ABBREVIATIONS USED IN REMARKS
   TC - TEMPERATURE IN CELSIUS
  WCI - WIND CHILL INDEX
   HX - HEAT INDEX
  VSB - VISIBILITY





USA.gov is the U.S. government's official web portal to all federal, state and local government web resources and services.